Location: Newark
(58.8333°N, 23.5833°E)
Time: 06:34:38
(UTC+00:00)

A-11 Canister half - Pass Details

Date: 17 November 2019
Orbit: 1515 x 1685 km, 47.2° (Epoch: 05 December)

Event Time Altitude Azimuth Distance (km) Brightness Sun altitude
Rises 14:49:43 0° 173° (S) 4,893 11.9 -6.3°
Reaches altitude 10° 14:55:40 10° 146° (SE) 3,934 11.1 -7.0°
Maximum altitude 14:59:03 12° 126° (SE) 3,770 10.8 -7.4°
Drops below altitude 10° 15:02:26 10° 106° (ESE) 3,952 10.7 -7.8°
Enters shadow 15:05:38 - 90° (E) 4,399 10.8 -8.2°
Sets 15:08:24 0° 80° (E) 4,942 - -8.5°
